Location: Unspecified
(35.6961°N, 0.0000°E)
Time: 02:52:56
(UTC+00:00)

Vanguard 3 - Pass Details

Date: 29 May 2019
Orbit: 508 x 3263 km, 33.3° (Epoch: 16 June)

Event Time Altitude Azimuth Distance (km) Brightness Sun altitude
Rises 17:32:23 0° 211° (SSW) 2,594 10.0 17.3°
Reaches altitude 10° 17:34:58 10° 189° (S) 1,784 8.9 16.8°
Maximum altitude 17:37:37 17° 146° (SE) 1,517 8.2 16.3°
Drops below altitude 10° 17:40:46 10° 104° (ESE) 2,195 8.8 15.7°
Sets 17:44:28 0° 86° (E) 3,515 9.8 15.0°
